| time (UTC) | temp C | wind direction | speed KPH | gust KPH | rain 1hr cm | rain 24hr cm | rain mn cm | humidity % | barometer mb |
| 20260506104501 | 22 | 182 | 0.0 | 1.6 | 0.00 | 0.00 | 0.00 | 93 | 1009.8 |
| 20260506103100 | 22 | 182 | 0.0 | 6.4 | 0.00 | 0.00 | 0.00 | 93 | 1009.6 |
| 20260506101558 | 22 | 206 | 0.0 | 6.4 | 0.00 | 0.00 | 0.00 | 93 | 1009.6 |
| 20260506100057 | 23 | 197 | 0.0 | 1.6 | 0.00 | 0.00 | 0.00 | 93 | 1009.3 |
| 20260506094556 | 23 | 192 | 0.0 | 9.7 | 0.00 | 0.00 | 0.00 | 93 | 1009.0 |
| 20260506093110 | 23 | 202 | 1.6 | 9.7 | 0.00 | 0.00 | 0.00 | 92 | 1008.9 |
| 20260506091554 | 23 | 193 | 0.0 | 11.3 | 0.00 | 0.00 | 0.00 | 92 | 1008.7 |
| 20260506090058 | 23 | 185 | 0.0 | 6.4 | 0.00 | 0.00 | 0.00 | 92 | 1008.4 |
| 20260506084554 | 23 | 188 | 1.6 | 12.9 | 0.00 | 0.00 | 0.00 | 92 | 1008.6 |
| 20260506083053 | 23 | 198 | 0.0 | 11.3 | 0.00 | 0.00 | 0.00 | 92 | 1008.7 |
| 20260506081551 | 23 | 205 | 3.2 | 16.1 | 0.00 | 0.00 | 0.00 | 92 | 1008.5 |
| 20260506073049 | 23 | 206 | 0.0 | 8.0 | 0.00 | 0.00 | 0.00 | 91 | 1008.9 |
| 20260506071547 | 23 | 228 | 3.2 | 14.5 | 0.00 | 0.00 | 0.00 | 91 | 1009.1 |
| 20260506061557 | 23 | 188 | 1.6 | 14.5 | 0.00 | 0.00 | 0.00 | 91 | 1009.2 |
| 20260506044537 | 23 | 146 | 1.6 | 11.3 | 0.00 | 0.00 | 0.00 | 90 | 1009.0 |
| 20260506043035 | 23 | 214 | 1.6 | 11.3 | 0.00 | 0.00 | 0.00 | 89 | 1009.1 |
| 20260506041535 | 23 | 184 | 1.6 | 9.7 | 0.00 | 0.00 | 0.00 | 89 | 1009.0 |
| 20260506040034 | 24 | 221 | 3.2 | 11.3 | 0.00 | 0.00 | 0.00 | 88 | 1008.8 |
| 20260506034534 | 24 | 44 | 1.6 | 11.3 | 0.00 | 0.00 | 0.00 | 88 | 1008.6 |
| 20260506033034 | 24 | 117 | 0.0 | 9.7 | 0.00 | 0.00 | 0.00 | 88 | 1008.6 |
| 20260506031533 | 24 | 107 | 1.6 | 9.7 | 0.00 | 0.00 | 0.00 | 87 | 1008.5 |
| 20260506030034 | 25 | 158 | 0.0 | 11.3 | 0.00 | 0.00 | 0.00 | 86 | 1008.1 |
| 20260506024531 | 25 | 174 | 1.6 | 14.5 | 0.00 | 0.00 | 0.00 | 85 | 1008.0 |
| 20260506023031 | 25 | 118 | 1.6 | 9.7 | 0.00 | 0.00 | 0.00 | 84 | 1007.7 |
| 20260506021530 | 25 | 134 | 0.0 | 6.4 | 0.00 | 0.00 | 0.00 | 83 | 1007.4 |
| 20260506020100 | 25 | 125 | 0.0 | 11.3 | 0.00 | 0.00 | 0.00 | 83 | 1007.0 |
| 20260506014529 | 25 | 109 | 1.6 | 6.4 | 0.00 | 0.00 | 0.00 | 82 | 1007.0 |
| 20260506013029 | 26 | 209 | 0.0 | 4.8 | 0.00 | 0.00 | 0.00 | 81 | 1007.0 |
| 20260506011528 | 26 | 130 | 0.0 | 4.8 | 0.00 | 0.00 | 0.00 | 80 | 1007.0 |
| 20260506010030 | 26 | 149 | 0.0 | 4.8 | 0.00 | 0.00 | 0.00 | 79 | 1007.0 |
| 20260506004526 | 26 | 119 | 0.0 | 4.8 | 0.00 | 0.00 | 0.00 | 79 | 1007.0 |
| 20260506003026 | 27 | 155 | 0.0 | 6.4 | 0.00 | 0.00 | 0.00 | 78 | 1007.0 |
| 20260506001525 | 27 | 182 | 0.0 | 3.2 | 0.00 | 0.00 | 0.00 | 77 | 1007.1 |
| 20260506000041 | 27 | 182 | 0.0 | 12.9 | 0.00 | 0.00 | 0.00 | 77 | 1006.9 |
| 20260505234524 | 27 | 165 | 1.6 | 8.0 | 0.00 | 0.00 | 0.00 | 75 | 1006.7 |
| 20260505233022 | 27 | 217 | 0.0 | 12.9 | 0.00 | 0.00 | 0.00 | 75 | 1006.6 |
| 20260505231528 | 27 | 175 | 3.2 | 12.9 | 0.00 | 0.00 | 0.00 | 75 | 1006.5 |
| 20260505230034 | 28 | 136 | 1.6 | 8.0 | 0.00 | 0.00 | 0.00 | 75 | 1006.5 |
| 20260505224522 | 28 | 250 | 1.6 | 11.3 | 0.00 | 0.00 | 0.00 | 74 | 1006.5 |
| 20260505223021 | 28 | 203 | 1.6 | 6.4 | 0.00 | 0.00 | 0.00 | 75 | 1006.3 |
| 20260505221519 | 28 | 216 | 4.8 | 9.7 | 0.00 | 0.00 | 0.00 | 73 | 1006.3 |
| 20260505220018 | 28 | 190 | 1.6 | 16.1 | 0.00 | 0.00 | 0.00 | 73 | 1006.5 |
| 20260505214516 | 28 | 174 | 3.2 | 17.7 | 0.00 | 0.00 | 0.00 | 72 | 1006.8 |
| 20260505213016 | 28 | 234 | 3.2 | 14.5 | 0.00 | 0.00 | 0.00 | 73 | 1006.9 |
| 20260505211518 | 28 | 185 | 1.6 | 12.9 | 0.00 | 0.00 | 0.00 | 73 | 1007.1 |
| 20260505210010 | 28 | 234 | 4.8 | 19.3 | 0.00 | 0.00 | 0.00 | 73 | 1007.2 |
| 20260505204508 | 28 | 240 | 3.2 | 12.9 | 0.00 | 0.00 | 0.00 | 74 | 1007.2 |
| 20260505203013 | 28 | 211 | 1.6 | 20.9 | 0.00 | 0.00 | 0.00 | 74 | 1007.6 |
| 20260505201505 | 28 | 175 | 4.8 | 16.1 | 0.00 | 0.00 | 0.00 | 75 | 1007.8 |
| 20260505200001 | 27 | 221 | 3.2 | 19.3 | 0.00 | 0.00 | 0.00 | 76 | 1008.1 |
| 20260505194600 | 27 | 171 | 1.6 | 9.7 | 0.00 | 0.00 | 0.00 | 76 | 1008.4 |
| 20260505193100 | 27 | 186 | 4.8 | 11.3 | 0.00 | 0.00 | 0.00 | 77 | 1008.5 |
| 20260505191603 | 27 | 175 | 0.0 | 8.0 | 0.00 | 0.00 | 0.00 | 78 | 1008.6 |
| 20260505190055 | 26 | 269 | 0.0 | 12.9 | 0.00 | 0.00 | 0.00 | 79 | 1008.6 |
| 20260505184549 | 26 | 219 | 1.6 | 11.3 | 0.00 | 0.00 | 0.00 | 80 | 1008.8 |
| 20260505183047 | 25 | 220 | 1.6 | 14.5 | 0.00 | 0.00 | 0.00 | 81 | 1009.1 |
| 20260505181605 | 25 | 211 | 1.6 | 8.0 | 0.00 | 0.00 | 0.00 | 82 | 1009.3 |
| 20260505180047 | 24 | 209 | 4.8 | 14.5 | 0.00 | 0.00 | 0.00 | 83 | 1009.2 |
| 20260505174539 | 23 | 266 | 4.8 | 12.9 | 0.00 | 0.00 | 0.00 | 84 | 1009.6 |
| 20260505173033 | 23 | 240 | 0.0 | 12.9 | 0.00 | 0.00 | 0.00 | 86 | 1009.8 |
| 20260505171537 | 23 | 232 | 0.0 | 11.3 | 0.00 | 0.00 | 0.00 | 87 | 1009.8 |
| 20260505170028 | 22 | 223 | 1.6 | 9.7 | 0.00 | 0.00 | 0.00 | 88 | 1009.9 |
| 20260505164523 | 22 | 211 | 0.0 | 8.0 | 0.00 | 0.00 | 0.00 | 89 | 1009.9 |
| 20260505163019 | 22 | 215 | 1.6 | 9.7 | 0.00 | 0.00 | 0.00 | 90 | 1010.0 |
| 20260505161516 | 21 | 205 | 0.0 | 9.7 | 0.00 | 0.00 | 0.00 | 91 | 1010.0 |
| 20260505160115 | 21 | 234 | 3.2 | 8.0 | 0.00 | 0.00 | 0.00 | 91 | 1010.0 |
| 20260505153025 | 21 | 218 | 1.6 | 16.1 | 0.00 | 0.00 | 0.00 | 92 | 1010.2 |
| 20260505151510 | 21 | 199 | 3.2 | 12.9 | 0.00 | 0.00 | 0.00 | 92 | 1010.0 |
| 20260505124507 | 20 | 149 | 1.6 | 14.5 | 0.00 | 0.00 | 0.00 | 92 | 1008.7 |
| 20260505123004 | 20 | 183 | 1.6 | 9.7 | 0.00 | 0.00 | 0.00 | 92 | 1008.6 |
| 20260505121503 | 20 | 188 | 1.6 | 14.5 | 0.00 | 0.00 | 0.00 | 92 | 1008.3 |
| 20260505120003 | 20 | 172 | 1.6 | 11.3 | 0.00 | 0.00 | 0.00 | 92 | 1008.2 |
| 20260505114503 | 20 | 169 | 1.6 | 8.0 | 0.00 | 0.00 | 0.00 | 92 | 1008.1 |
| 20260505113002 | 20 | 205 | 0.0 | 11.3 | 0.00 | 0.00 | 0.00 | 92 | 1008.2 |
| 20260505111503 | 20 | 167 | 3.2 | 12.9 | 0.00 | 0.00 | 0.00 | 91 | 1008.1 |
| 20260505110116 | 20 | 196 | 1.6 | 16.1 | 0.00 | 0.00 | 0.00 | 91 | 1008.5 |